Wind_Speed
43 44 45 44 44 45 46 46 45 45 47 48 49 50 49 50 50 50 51 51 51 51 52 52 52 52 53 53 53 53 53 53 53 53 52 52 52 52
45 45 46 46 46 46 47 47 48 49 49 50 52 52 52 52 53 53 54 53 53 54 55 55 54 54 55 55 55 55 55 54 54 54 54 54 53 53
47 47 47 48 48 48 49 49 50 51 52 51 53 54 54 54 54 55 55 55 55 55 56 56 57 57 57 57 57 56 56 55 55 54 54 54 54 54
48 49 49 49 49 50 50 51 52 53 53 53 54 55 54 54 54 55 56 55 56 56 55 56 57 57 58 58 57 57 56 55 55 55 55 54 54 54
49 50 51 50 50 51 52 53 54 55 55 54 54 54 54 54 54 55 55 55 55 56 55 55 56 57 57 57 56 56 55 55 55 55 55 54 54 55
51 51 52 53 54 54 55 55 55 55 54 54 54 53 54 54 55 55 55 55 55 55 55 55 56 56 56 56 56 55 54 54 54 55 55 55 55 54
53 53 54 55 55 56 56 55 55 55 54 54 54 54 55 55 56 56 56 55 55 54 55 55 56 55 55 55 55 54 54 53 54 54 54 54 53 53
54 55 55 55 55 56 56 55 55 55 55 55 55 55 55 56 56 57 56 55 55 54 56 55 55 55 54 54 54 53 53 53 52 52 52 52 51 51
54 55 55 55 56 56 56 56 56 56 57 57 56 56 56 57 57 57 57 56 55 54 55 54 55 54 54 53 53 53 53 52 51 51 51 50 50 49
54 54 55 55 55 56 56 57 57 57 58 57 57 56 56 56 56 56 56 57 55 54 56 55 54 53 52 52 53 52 52 52 51 50 50 50 50 50
55 55 55 55 55 56 57 57 57 57 57 57 57 57 56 55 56 56 56 56 54 53 53 54 52 51 51 51 51 51 50 50 50 50 50 50 50 50
55 55 55 55 55 56 56 56 56 55 55 55 55 56 56 55 55 55 55 55 54 52 51 52 51 50 49 49 49 49 49 49 49 49 49 49 49 49
54 55 55 56 56 56 55 55 55 54 54 54 53 53 54 54 54 54 54 53 53 52 51 51 50 49 48 47 48 48 48 48 48 48 49 48 48 48
54 54 54 55 55 54 54 54 53 53 52 51 51 51 51 52 52 52 52 52 52 52 51 50 50 49 48 47 46 46 47 47 47 47 47 47 47 47
54 54 54 53 53 53 52 52 51 51 50 49 49 49 49 50 50 49 49 49 49 49 49 49 49 48 47 46 45 44 45 45 46 46 46 46 45 45
52 52 51 51 51 51 49 49 49 49 48 48 48 48 48 48 48 47 46 46 46 46 46 46 46 45 44 43 43 43 43 42 43 43 43 42 42 42
50 49 49 48 48 47 47 47 47 47 47 48 47 47 47 47 46 45 45 45 44 44 43 43 43 43 42 42 41 41 40 40 40 40 40 39 40 40
48 47 47 46 45 45 45 45 46 46 46 46 46 46 46 45 44 44 44 43 43 42 41 41 41 40 40 39 39 39 38 38 37 38 38 37 37 37
46 45 44 43 43 43 43 43 43 44 44 44 45 44 44 43 42 42 41 41 40 39 38 38 38 38 37 36 36 37 37 36 36 36 36 36 35 36
43 42 41 41 41 41 41 41 41 42 42 42 42 42 41 40 40 39 39 38 37 36 35 35 35 36 35 35 34 34 35 35 35 34 34 34 34 34
40 40 40 40 40 39 39 39 40 40 40 40 40 39 39 38 37 36 36 35 34 33 33 33 33 34 33 33 31 31 32 32 32 31 31 31 31 30
39 39 39 38 38 37 37 37 37 37 37 37 37 37 36 35 35 34 33 33 32 32 31 31 31 31 31 30 29 29 29 29 29 29 29 28 28 27
37 36 35 35 34 34 34 34 34 34 35 35 34 33 33 32 31 31 31 31 30 30 30 30 29 29 29 28 27 27 27 27 27 27 27 26 26 26
Wind_Direction
271 271 273 274 275 276 275 275 276 275 275 275 276 277 280 280 279 280 280 280 280 280 281 281 281 281 281 281 282 282 282 281 281 281 281 281 280 279
271 271 272 273 274 275 275 275 276 276 276 277 277 277 279 281 280 281 281 281 281 281 281 282 282 282 283 283 283 282 282 281 281 281 281 281 281 280
271 271 272 273 274 274 275 276 277 278 277 277 278 279 280 281 281 281 281 282 281 281 282 282 283 283 284 284 283 283 282 282 281 281 281 281 281 281
272 272 273 274 275 276 276 278 278 278 278 278 279 280 280 281 281 281 281 282 282 282 282 283 284 284 284 284 283 283 282 282 281 281 281 280 280 280
272 273 274 274 275 276 277 279 279 279 279 279 280 280 280 281 282 282 281 281 282 282 283 284 284 284 284 283 282 281 281 281 281 281 280 280 279 279
273 274 275 276 276 277 279 280 281 280 280 280 279 280 280 281 282 282 282 282 283 284 284 284 284 284 283 282 282 281 281 280 280 280 280 279 279 278
273 274 275 276 278 279 279 280 280 280 279 280 280 280 281 281 282 282 282 282 283 284 284 283 283 283 283 282 282 281 281 281 281 281 280 279 279 278
273 274 275 276 278 278 279 279 279 280 280 280 281 281 281 281 282 282 283 283 283 283 283 284 284 283 282 282 282 282 282 282 281 281 280 279 278 277
275 276 277 278 279 279 279 279 280 280 281 281 281 282 282 282 283 283 284 284 284 283 283 284 284 283 282 282 282 283 283 282 281 280 279 279 278 277
277 278 279 279 278 279 279 280 280 280 281 281 281 282 282 282 282 283 283 284 284 284 285 285 284 283 282 282 283 283 283 283 282 280 280 280 279 278
277 278 279 279 279 279 280 281 281 281 281 281 282 281 281 281 281 282 283 284 284 285 285 285 284 283 282 282 282 282 282 282 281 281 281 281 280 279
277 277 278 279 279 280 280 280 281 281 281 282 282 281 281 280 281 282 283 284 284 284 284 284 284 283 282 282 282 282 282 281 281 280 280 280 280 279
277 278 278 279 280 280 280 281 281 281 282 282 282 282 282 282 281 282 284 285 285 284 284 284 284 283 283 282 282 282 281 281 280 280 281 281 281 280
278 278 278 279 280 280 280 280 281 281 282 282 282 282 283 283 282 283 283 283 284 284 284 284 283 283 283 282 281 281 282 282 281 281 281 281 281 281
279 279 279 280 280 280 279 279 280 280 281 282 283 283 283 283 283 284 284 283 284 284 284 283 283 283 283 283 283 282 282 283 283 282 282 282 283 282
280 280 279 280 280 279 278 278 278 279 280 281 282 283 283 284 284 284 284 284 284 284 284 284 283 283 284 284 285 285 285 285 285 284 284 284 285 284
279 279 279 279 278 278 277 277 278 279 280 282 282 283 283 284 284 284 284 284 284 285 284 283 282 282 283 284 286 286 286 287 286 285 285 285 285 285
279 279 279 279 278 278 278 278 279 280 281 282 283 283 283 283 283 284 284 284 285 285 284 283 282 282 283 284 286 287 287 287 287 287 287 286 285 285
279 279 278 278 279 279 280 280 280 281 282 283 283 283 283 283 283 283 283 283 284 284 284 283 282 283 283 285 286 287 288 288 288 288 288 287 287 286
279 279 279 278 279 279 280 281 281 282 282 283 283 283 282 282 282 283 282 283 283 283 284 284 284 284 285 286 286 287 288 289 289 289 289 289 289 288
278 278 278 278 279 280 281 281 282 281 281 282 282 282 282 282 282 282 282 283 283 283 284 285 285 284 285 286 286 287 288 289 290 290 290 290 290 289
278 278 278 278 278 279 280 281 281 281 281 282 282 281 281 281 282 281 281 282 283 284 285 285 284 284 285 285 286 287 288 289 291 292 294 294 293 291
279 279 278 277 278 278 279 280 282 282 282 281 281 280 280 280 281 281 282 282 283 284 284 285 285 284 284 285 286 287 289 290 292 294 295 296 297 296
Height
5725 5725 5726 5725 5725 5724 5724 5724 5724 5724 5724 5723 5722 5721 5719 5718 5717 5715 5714 5713 5711 5709 5708 5706 5704 5703 5701 5699 5698 5696 5694 5692 5690 5688 5687 5685 5684 5683
5714 5714 5714 5714 5713 5712 5712 5711 5710 5710 5711 5711 5709 5707 5706 5704 5702 5701 5699 5698 5696 5694 5692 5691 5689 5687 5686 5684 5682 5680 5678 5676 5674 5673 5671 5669 5668 5667
5702 5702 5702 5702 5701 5700 5699 5698 5697 5696 5697 5697 5695 5693 5691 5690 5688 5686 5684 5682 5680 5678 5676 5674 5673 5671 5669 5667 5665 5663 5661 5659 5658 5656 5655 5653 5652 5651
5690 5690 5689 5689 5688 5687 5686 5685 5684 5682 5681 5682 5681 5679 5676 5674 5672 5671 5669 5667 5664 5662 5660 5658 5655 5653 5651 5649 5647 5645 5644 5642 5640 5639 5638 5637 5635 5633
5677 5676 5676 5675 5675 5674 5672 5671 5669 5667 5666 5665 5665 5664 5661 5659 5657 5655 5653 5651 5649 5646 5644 5641 5639 5636 5633 5631 5629 5628 5626 5625 5624 5622 5620 5619 5617 5616
5663 5663 5662 5661 5660 5659 5658 5656 5654 5652 5650 5649 5649 5648 5646 5644 5641 5639 5638 5636 5633 5630 5628 5625 5622 5619 5617 5614 5613 5611 5609 5607 5606 5605 5603 5602 5601 5599
5649 5648 5647 5646 5645 5643 5642 5641 5638 5637 5635 5634 5633 5632 5630 5628 5625 5623 5621 5620 5618 5614 5612 5610 5607 5604 5601 5598 5596 5594 5592 5590 5589 5588 5586 5585 5584 5583
5634 5633 5632 5630 5629 5628 5627 5625 5623 5621 5620 5618 5617 5615 5614 5611 5609 5606 5604 5603 5603 5601 5596 5595 5591 5589 5585 5582 5580 5578 5576 5574 5572 5571 5569 5568 5567 5567
5618 5617 5616 5615 5613 5612 5611 5610 5608 5606 5604 5602 5601 5599 5597 5595 5592 5590 5587 5585 5585 5582 5579 5578 5576 5573 5570 5567 5564 5562 5560 5558 5557 5555 5554 5553 5552 5551
5603 5602 5601 5599 5597 5596 5595 5594 5592 5590 5588 5586 5585 5583 5580 5578 5575 5573 5571 5570 5569 5567 5562 5561 5560 5557 5555 5552 5549 5547 5545 5543 5542 5540 5539 5538 5537 5536
5589 5587 5585 5584 5582 5580 5578 5577 5576 5574 5572 5569 5568 5566 5564 5562 5559 5557 5556 5553 5553 5552 5548 5545 5544 5541 5540 5538 5535 5532 5530 5528 5527 5525 5524 5523 5522 5521
5574 5572 5570 5568 5566 5564 5562 5561 5560 5558 5556 5554 5552 5550 5548 5546 5544 5541 5539 5537 5536 5536 5533 5530 5528 5525 5526 5525 5521 5518 5515 5514 5512 5510 5509 5508 5506 5505
5558 5557 5555 5552 5550 5548 5546 5545 5543 5542 5540 5538 5537 5535 5533 5531 5529 5526 5524 5522 5520 5519 5518 5514 5513 5510 5509 5509 5507 5504 5501 5499 5498 5496 5494 5493 5491 5490
5543 5541 5539 5537 5535 5533 5531 5529 5527 5525 5524 5523 5522 5520 5518 5516 5514 5512 5509 5507 5505 5504 5502 5499 5497 5496 5494 5493 5492 5490 5487 5485 5484 5482 5480 5478 5477 5475
5527 5525 5523 5521 5519 5517 5516 5514 5512 5510 5509 5508 5507 5505 5503 5501 5499 5497 5495 5493 5492 5489 5487 5484 5483 5481 5479 5478 5477 5476 5474 5472 5470 5468 5467 5465 5463 5462
5511 5509 5508 5506 5504 5502 5501 5499 5497 5496 5495 5494 5493 5491 5490 5488 5485 5483 5482 5480 5478 5477 5473 5471 5469 5467 5466 5465 5463 5462 5461 5459 5457 5455 5454 5452 5450 5448
5496 5495 5493 5492 5490 5488 5487 5485 5484 5483 5482 5480 5479 5478 5476 5474 5472 5470 5468 5467 5465 5464 5461 5459 5456 5455 5454 5452 5451 5450 5448 5446 5444 5442 5441 5440 5437 5435
5481 5480 5479 5477 5476 5475 5474 5472 5471 5470 5468 5467 5465 5464 5463 5461 5459 5457 5455 5454 5453 5451 5449 5446 5444 5443 5443 5441 5440 5438 5436 5434 5432 5430 5428 5427 5426 5423
5468 5467 5466 5465 5463 5462 5461 5460 5458 5457 5455 5454 5452 5451 5449 5448 5446 5445 5443 5442 5440 5439 5437 5435 5433 5432 5431 5431 5430 5426 5425 5423 5421 5419 5417 5415 5414 5412
5455 5454 5453 5452 5451 5450 5448 5447 5446 5444 5443 5441 5440 5438 5437 5435 5434 5433 5431 5430 5429 5427 5426 5424 5423 5421 5420 5420 5419 5417 5414 5412 5410 5408 5407 5404 5403 5401
5443 5442 5441 5440 5439 5438 5436 5435 5434 5433 5431 5430 5428 5427 5425 5424 5423 5422 5421 5420 5418 5417 5416 5415 5413 5411 5410 5409 5409 5407 5405 5402 5399 5398 5396 5395 5393 5391
5432 5430 5429 5428 5427 5426 5425 5424 5423 5421 5420 5419 5417 5416 5415 5413 5413 5412 5411 5410 5409 5408 5406 5405 5403 5402 5401 5400 5399 5398 5396 5394 5391 5389 5386 5385 5383 5382
5420 5419 5418 5418 5417 5416 5415 5414 5412 5411 5409 5408 5407 5406 5405 5404 5403 5402 5401 5400 5399 5398 5397 5396 5395 5393 5392 5391 5390 5389 5388 5386 5384 5382 5379 5376 5374 5372